Home > Weather > Surgut > Past weeks

Flag for Russia Past Weather in Surgut, Russia — Yesterday and Last 2 Weeks

Now
64 °F

Partly sunny.


Feels Like: 64 °F
Forecast: 59 / 72 °F
Wind: 13 mph from South

Location: Surgut Airport

Current Time: Jun 28, 2016 at 12:57:46 PM

Latest Report: Jun 28, 2016 at 11:30 AM


Visibility: 4 mi

Pressure: 29.45 "Hg

Humidity: 73%

Dew Point: 55 °F

Location of SurgutLocation

Past Weather in Surgut — Graph

°F

Surgut Temperature Yesterday

Maximum temperature yesterday: 73 °F (at 11:00 AM)
Minimum temperature yesterday: 59 °F (at 1:00 AM)
Average temperature yesterday: 67 °F

High & Low Weather Summary for the Past Weeks

 TemperatureHumidityPressure
High86 °F (Jun 13, 2:30 PM)100% (Jun 14, 7:00 PM)30.18 "Hg (Jun 14, 7:00 PM)
Low50 °F (Jun 17, 3:30 AM)26% (Jun 20, 1:30 PM)29.33 "Hg (Jun 27, 7:00 PM)
Average68 °F71%29.78 "Hg
* Reported Jun 13 11:00 AM — Jun 28 11:30 AM, Surgut, Weather by CustomWeather, © 2016

Note: Actual official high and low records may vary slightly from our data, if they occured in-between our weather recording intervals... More about our weather records

Advertising

Surgut Weather History for the Previous 24 Hours

Scroll right to see more
 ConditionsComfort  
Time TempWeatherWind HumidityBarometerVisibility
11:30 AM
Tue, Jun 28
64 °FPartly sunny.13 mph73%29.45 "Hg4 mi
11:00 AM64 °FPartly sunny.13 mph73%29.42 "Hg4 mi
10:30 AM64 °FScattered clouds.10 mph73%29.42 "Hg4 mi
10:00 AM63 °FScattered clouds.13 mph73%29.42 "Hg4 mi
9:30 AM64 °FScattered clouds.13 mph73%29.42 "Hg4 mi
9:00 AM63 °FScattered clouds.10 mph77%29.42 "Hg4 mi
8:30 AM63 °FScattered clouds.13 mph77%29.42 "Hg4 mi
8:00 AM63 °FScattered clouds.17 mph77%29.39 "Hg4 mi
7:30 AM63 °FScattered clouds.20 mph77%29.42 "Hg4 mi
7:00 AM63 °FScattered clouds.20 mph77%29.39 "Hg4 mi
6:30 AM61 °FScattered clouds.17 mph83%29.39 "Hg4 mi
6:00 AM61 °FScattered clouds.15 mph88%29.39 "Hg4 mi
5:30 AM61 °FBroken clouds.20 mph88%29.39 "Hg4 mi
5:00 AM61 °FBroken clouds.20 mph94%29.39 "Hg4 mi
4:30 AM61 °FScattered clouds.17 mph94%29.39 "Hg4 mi
4:00 AM61 °FScattered clouds.15 mph94%29.36 "Hg4 mi
3:30 AM61 °FScattered clouds.15 mph94%29.36 "Hg4 mi
3:00 AM61 °FScattered clouds.13 mph94%29.36 "Hg4 mi
2:30 AM61 °FScattered clouds.15 mph94%29.36 "Hg4 mi
2:00 AM63 °FPartly cloudy.10 mph94%29.36 "Hg4 mi
1:30 AM64 °FPartly cloudy.10 mph88%29.36 "Hg4 mi
1:00 AM64 °FPartly cloudy.10 mph94%29.36 "Hg4 mi
12:30 AM64 °FPartly cloudy.10 mph100%29.33 "Hg4 mi
12:00 AM64 °FPartly cloudy.10 mph100%29.33 "Hg4 mi
11:30 PM
Mon, Jun 27
64 °FPartly cloudy.13 mph100%29.33 "Hg4 mi
11:00 PM64 °FPassing clouds.13 mph100%29.33 "Hg4 mi
10:30 PM66 °FPassing clouds.6 mph94%29.33 "Hg4 mi
10:00 PM66 °FPartly cloudy.8 mph100%29.33 "Hg4 mi
9:30 PM66 °FBroken clouds.8 mph100%29.33 "Hg4 mi
9:00 PM66 °FBroken clouds.8 mph100%29.33 "Hg4 mi
8:30 PM66 °FBroken clouds.3 mph100%29.33 "Hg4 mi
8:00 PM66 °FSprinkles. Broken clouds.3 mph100%29.33 "Hg4 mi
7:30 PM66 °FScattered clouds.1 mph100%29.33 "Hg4 mi
7:00 PM66 °FSprinkles. Scattered clouds.8 mph100%29.33 "Hg4 mi
6:30 PM66 °FSprinkles. Scattered clouds.10 mph100%29.36 "Hg4 mi
6:00 PM70 °FSprinkles. Scattered clouds.8 mph100%29.36 "Hg4 mi
5:30 PM70 °FScattered clouds.8 mph100%29.36 "Hg4 mi
5:00 PM72 °FSprinkles. Scattered clouds.15 mph83%29.36 "Hg4 mi
4:30 PM73 °FScattered clouds.8 mph74%29.36 "Hg4 mi
4:00 PM73 °FScattered clouds.10 mph78%29.39 "Hg4 mi
3:30 PM72 °FScattered clouds.8 mph78%29.39 "Hg4 mi
3:00 PM72 °FScattered clouds.10 mph78%29.39 "Hg4 mi
2:30 PM72 °FScattered clouds.13 mph78%29.39 "Hg4 mi
2:00 PM73 °FScattered clouds.10 mph74%29.39 "Hg4 mi
1:30 PM73 °FSprinkles. Scattered clouds.15 mph74%29.42 "Hg4 mi
1:00 PM73 °FSprinkles. Scattered clouds.10 mph74%29.42 "Hg4 mi
12:30 PM73 °FScattered clouds.13 mph69%29.42 "Hg4 mi
12:00 PM73 °FScattered clouds.13 mph69%29.45 "Hg4 mi
Weather by CustomWeather, © 2016

See weather overviewHow to use our weather pages